Location: Sollberg
(42.7389°N, 93.6369°W)
Time: 06:59:58
(UTC+00:00)

ACS3 Solar Sail - Visible Passes

Search period start: 12 October 2024 00:00
Search period end: 22 October 2024 00:00
Orbit: 960 x 1033 km, 97.5° (Epoch: 12 October)

Date Brightness Start Highest point End Pass type
(mag) Time Alt. Az. Time Alt. Az. Time Alt. Az.
12 Oct 2.7 00:59:34 23° E 01:01:53 29° ENE 01:07:09 10° N visible
12 Oct 2.5 02:44:41 48° WSW 02:45:26 51° W 02:51:36 10° NNW visible
13 Oct 2.1 01:31:09 40° ESE 01:32:43 48° ENE 01:38:45 10° N visible
13 Oct 3.4 03:16:17 29° W 03:16:46 29° W 03:22:11 10° NNW visible
14 Oct 3.4 00:17:37 10° E 00:20:47 15° ENE 00:24:05 10° NNE visible
14 Oct 1.7 02:02:45 66° SSE 02:03:41 82° ENE 02:10:03 10° N visible
14 Oct 4.2 03:47:51 16° W 03:48:15 16° W 03:52:00 10° NW visible
15 Oct 2.9 00:49:12 21° E 00:51:23 25° ENE 00:56:21 10° NNE visible
15 Oct 2.3 02:34:19 57° WSW 02:34:49 59° W 02:41:03 10° NNW visible
16 Oct 2.2 01:20:46 37° E 01:22:09 42° ENE 01:28:00 10° N visible
16 Oct 3.2 03:05:52 33° W 03:06:05 33° W 03:11:43 10° NNW visible
17 Oct 3.5 00:07:42 10° E 00:10:17 13° NE 00:12:50 10° NNE visible
17 Oct 1.7 01:52:19 65° ESE 01:53:04 72° ENE 01:59:21 10° N visible
17 Oct 4.0 03:37:25 19° W 03:37:29 19° W 03:41:46 10° NW visible
18 Oct 3.0 00:38:45 19° E 00:40:49 22° ENE 00:45:25 10° NNE visible
18 Oct 2.0 02:23:51 67° WSW 02:24:06 67° W 02:30:24 10° NNW visible
19 Oct 2.4 01:10:16 34° E 01:11:30 37° ENE 01:17:09 10° N visible
19 Oct 3.0 02:55:23 38° W 02:55:23 38° W 03:01:07 10° NNW visible
19 Oct 3.6 23:58:17 10° ENE 23:59:42 11° NE 00:01:06 10° NE visible
20 Oct 1.8 01:41:48 60° E 01:42:21 63° ENE 01:48:32 10° N visible
20 Oct 3.8 03:26:55 22° W 03:26:55 22° W 03:31:21 10° NW visible
21 Oct 3.1 00:28:12 17° E 00:30:10 19° ENE 00:34:20 10° NNE visible
21 Oct 1.9 02:13:18 78° WSW 02:13:20 78° W 02:19:37 10° NNW visible
21 Oct 4.5 03:58:25 11° W 03:58:25 11° W 04:00:00 10° WNW visible
